Baraboo, WI

9:52 AM CDT on October 20, 2017 (GMT -0500)
Baraboo Wisconsin Dells

Weather History for KDLL - May, 2014

Change the Weather History Date:

Friday, May 16, 2014

  Actual Average Record
Temperature  
Mean Temperature 41 °F -  
Max Temperature 50 °F 70 °F 88 °F (1962)
Min Temperature 32 °F 43 °F 28 °F (1979)
Degree Days  
Heating Degree Days 24    
Moisture  
Dew Point 27 °F    
Average Humidity 53    
Maximum Humidity 81    
Minimum Humidity 39    
Precipitation  
Precipitation 0.00 in - - ()
Sea Level Pressure  
Sea Level Pressure 30.04 in    
Wind  
Wind Speed 5 mph (NNW)    
Max Wind Speed 9 mph    
Max Gust Speed -    
Visibility 10 miles    
Events      
Averages and records for this station are not official NWS values.
T = Trace of Precipitation, MM = Missing Value Source: NWS Daily Summary

Daily Weather History Graph

Daily Weather History Graph

Search for Another Location

Airport or City:

Trip Planner

Search our weather history database for the weather conditions in past years. The results will help you decide how hot, cold, wet, or windy it might be!

Date:

Astronomy

May. 16, 2014 Rise Set
Actual Time 5:33 AM CDT 8:18 PM CDT
Civil Twilight 5:00 AM CDT 8:51 PM CDT
Nautical Twilight 4:18 AM CDT 9:33 PM CDT
Astronomical Twilight 3:30 AM CDT 10:21 PM CDT
Moon 10:25 PM CDT (5/16) 7:15 AM CDT (5/16)
Length of Visible Light 15h 51m
Length of Day
14h 44m
Waning Gibbous, 95% of the Moon is Illuminated
May 16
Waning Gibbous
May 21
Last Quarter
May 28
New
Jun 5
First Quarter
Jun 12
Full

Hourly Weather History & Observations

Time (CDT) Temp. Windchill Dew Point Humidity Pressure Visibility Wind Dir Wind Speed Gust Speed Precip Events Conditions
12:10 AM 42.8 °F 38.0 °F 26.6 °F 53% 30.06 in 10.0 mi NNE 8.1 mph - N/A   Overcast
12:30 AM 42.4 °F 37.0 °F 26.1 °F 52% 30.05 in 10.0 mi NNE 9.2 mph - N/A   Overcast
12:50 AM 42.1 °F 37.7 °F 26.2 °F 53% 30.05 in 10.0 mi NNE 6.9 mph - N/A   Overcast
1:10 AM 41.9 °F 37.5 °F 27.0 °F 55% 30.05 in 10.0 mi NNE 6.9 mph - N/A   Overcast
1:30 AM 41.4 °F 36.8 °F 25.0 °F 52% 30.04 in 10.0 mi NNE 6.9 mph - N/A   Overcast
1:50 AM 41.2 °F 36.6 °F 25.2 °F 53% 30.04 in 10.0 mi NNE 6.9 mph - N/A   Overcast
2:10 AM 40.6 °F 36.7 °F 25.5 °F 55% 30.04 in 10.0 mi NNE 5.8 mph - N/A   Overcast
2:30 AM 40.1 °F 38.0 °F 26.6 °F 59% 30.04 in 10.0 mi NNE 3.5 mph - N/A   Overcast
2:50 AM 40.1 °F 36.1 °F 25.9 °F 57% 30.04 in 10.0 mi NNE 5.8 mph - N/A   Overcast
3:10 AM 39.7 °F 36.5 °F 26.4 °F 59% 30.04 in 10.0 mi NNE 4.6 mph - N/A   Overcast
3:30 AM 39.4 °F 36.1 °F 25.2 °F 57% 30.03 in 10.0 mi NNE 4.6 mph - N/A   Overcast
3:50 AM 38.7 °F 35.2 °F 25.7 °F 60% 30.03 in 10.0 mi NNE 4.6 mph - N/A   Overcast
4:10 AM 37.6 °F 34.0 °F 25.7 °F 62% 30.03 in 10.0 mi NNE 4.6 mph - N/A   Mostly Cloudy
4:30 AM 36.5 °F 33.9 °F 25.3 °F 64% 30.03 in 10.0 mi NNE 3.5 mph - N/A   Scattered Clouds
4:50 AM 36.0 °F - 25.5 °F 66% 30.03 in 10.0 mi Calm Calm - N/A   Scattered Clouds
5:10 AM 35.6 °F 31.7 °F 25.5 °F 67% 30.03 in 10.0 mi North 4.6 mph - N/A   Clear
5:30 AM 34.3 °F 31.4 °F 26.1 °F 72% 30.03 in 10.0 mi NNW 3.5 mph - N/A   Clear
5:50 AM 34.2 °F - 26.2 °F 73% 30.03 in 10.0 mi Calm Calm - N/A   Clear
6:10 AM 33.3 °F - 26.8 °F 77% 30.04 in 10.0 mi Calm Calm - N/A   Clear
6:30 AM 32.9 °F - 27.5 °F 81% 30.04 in 10.0 mi Calm Calm - N/A   Clear
6:50 AM 34.5 °F - 28.6 °F 79% 30.04 in 10.0 mi Calm Calm - N/A   Clear
7:10 AM 37.8 °F - 28.8 °F 70% 30.04 in 10.0 mi Calm Calm - N/A   Clear
7:30 AM 39.2 °F - 27.9 °F 64% 30.05 in 10.0 mi Calm Calm - N/A   Clear
7:50 AM 40.1 °F 36.1 °F 26.8 °F 59% 30.05 in 10.0 mi NE 5.8 mph - N/A   Clear
8:10 AM 41.2 °F - 26.6 °F 56% 30.05 in 10.0 mi Calm Calm - N/A   Clear
8:30 AM 41.9 °F 37.5 °F 25.9 °F 53% 30.05 in 10.0 mi NE 6.9 mph - N/A   Clear
8:50 AM 42.6 °F 39.9 °F 25.7 °F 51% 30.05 in 10.0 mi North 4.6 mph - N/A   Clear
9:10 AM 43.9 °F 41.3 °F 26.6 °F 51% 30.04 in 10.0 mi NNW 4.6 mph - N/A   Clear
9:30 AM 44.1 °F 40.8 °F 26.2 °F 50% 30.05 in 10.0 mi NNW 5.8 mph - N/A   Scattered Clouds
9:50 AM 44.6 °F - 26.6 °F 49% 30.04 in 10.0 mi Calm Calm - N/A   Scattered Clouds
10:10 AM 43.3 °F 39.9 °F 26.1 °F 51% 30.04 in 10.0 mi NW 5.8 mph - N/A   Scattered Clouds
10:30 AM 46.4 °F 43.5 °F 26.8 °F 46% 30.04 in 10.0 mi North 5.8 mph - N/A   Clear
10:50 AM 46.4 °F 44.3 °F 26.6 °F 46% 30.04 in 10.0 mi NE 4.6 mph - N/A   Scattered Clouds
11:10 AM 46.9 °F - 25.3 °F 43% 30.03 in 10.0 mi Calm Calm - N/A   Overcast
11:30 AM 46.4 °F 43.5 °F 25.5 °F 44% 30.04 in 10.0 mi North 5.8 mph - N/A   Overcast
11:50 AM 47.1 °F - 25.3 °F 43% 30.04 in 10.0 mi NW 6.9 mph - N/A   Overcast
12:10 PM 46.4 °F 43.5 °F 26.6 °F 46% 30.03 in 10.0 mi North 5.8 mph - N/A   Overcast
12:30 PM 46.6 °F - 27.0 °F 46% 30.03 in 10.0 mi WNW 9.2 mph - N/A   Overcast
12:50 PM 46.9 °F - 25.5 °F 43% 30.03 in 10.0 mi NNW 5.8 mph - N/A   Overcast
1:10 PM 47.3 °F - 25.9 °F 43% 30.03 in 10.0 mi North 5.8 mph - N/A   Overcast
1:30 PM 48.2 °F - 26.4 °F 43% 30.03 in 10.0 mi NNW 5.8 mph - N/A   Overcast
1:50 PM 46.9 °F - 25.5 °F 43% 30.03 in 10.0 mi North 4.6 mph - N/A   Overcast
2:10 PM 47.7 °F - 27.3 °F 45% 30.03 in 10.0 mi North 6.9 mph - N/A   Overcast
2:30 PM 47.7 °F - 25.5 °F 42% 30.03 in 10.0 mi Calm Calm - N/A   Overcast
2:50 PM 47.8 °F - 26.4 °F 43% 30.03 in 10.0 mi WNW 5.8 mph - N/A   Overcast
3:10 PM 47.3 °F - 26.4 °F 44% 30.03 in 10.0 mi West 4.6 mph - N/A   Overcast
3:30 PM 47.3 °F - 28.0 °F 47% 30.03 in 10.0 mi WNW 3.5 mph - N/A   Overcast
3:50 PM 48.7 °F - 27.3 °F 43% 30.02 in 10.0 mi SW 4.6 mph - N/A   Overcast
4:10 PM 48.2 °F - 25.5 °F 41% 30.02 in 10.0 mi NNW 3.5 mph - N/A   Overcast
4:50 PM 50.2 °F - 26.2 °F 39% 30.02 in 10.0 mi SSW 4.6 mph - N/A   Overcast
5:10 PM 49.1 °F - 26.1 °F 41% 30.02 in 10.0 mi West 6.9 mph - N/A   Overcast
5:30 PM 47.5 °F - 25.5 °F 42% 30.02 in 10.0 mi WNW 6.9 mph - N/A   Overcast
5:50 PM 47.1 °F - 26.8 °F 45% 30.03 in 10.0 mi WNW 5.8 mph - N/A   Overcast
6:10 PM 47.5 °F - 26.2 °F 44% 30.03 in 10.0 mi NW 5.8 mph - N/A   Overcast
6:30 PM 47.8 °F - 26.8 °F 44% 30.03 in 10.0 mi West 5.8 mph - N/A   Overcast
6:50 PM 47.3 °F - 26.8 °F 45% 30.03 in 10.0 mi West 4.6 mph - N/A   Overcast
7:10 PM 47.3 °F - 25.9 °F 43% 30.03 in 10.0 mi WNW 6.9 mph - N/A   Overcast
7:30 PM 46.8 °F - 28.0 °F 48% 30.03 in 10.0 mi WNW 4.6 mph - N/A   Overcast
7:50 PM 46.8 °F - 26.2 °F 45% 30.04 in 10.0 mi WNW 6.9 mph - N/A   Overcast
8:10 PM 45.1 °F 42.8 °F 27.7 °F 50% 30.04 in 10.0 mi WNW 4.6 mph - N/A   Overcast
8:30 PM 44.8 °F 42.4 °F 27.5 °F 51% 30.04 in 10.0 mi West 4.6 mph - N/A   Overcast
8:50 PM 44.6 °F 42.2 °F 28.2 °F 53% 30.05 in 10.0 mi WNW 4.6 mph - N/A   Overcast
9:10 PM 44.1 °F - 28.4 °F 54% 30.05 in 10.0 mi Calm Calm - N/A   Overcast
9:30 PM 44.4 °F 42.9 °F 28.0 °F 53% 30.06 in 10.0 mi West 3.5 mph - N/A   Overcast
9:50 PM 43.5 °F 41.9 °F 29.1 °F 57% 30.06 in 10.0 mi West 3.5 mph - N/A   Overcast
10:10 PM 43.0 °F - 29.5 °F 59% 30.06 in 10.0 mi Calm Calm - N/A   Overcast
10:50 PM 42.4 °F - 28.8 °F 58% 30.06 in 10.0 mi Calm Calm - N/A   Clear
11:10 PM 42.1 °F - 28.9 °F 60% 30.06 in 10.0 mi Calm Calm - N/A   Scattered Clouds
11:30 PM 40.5 °F - 29.7 °F 65% 30.06 in 10.0 mi Calm Calm - N/A   Mostly Cloudy
11:50 PM 39.6 °F - 30.2 °F 69% 30.06 in 10.0 mi Calm Calm - N/A   Overcast